Location: Saint-Denis
(20.8800°S, 55.4481°E)
Time: 11:36:47
(UTC+04:00)

VELOX 1 - Visible Passes

Search period start: 09 June 2023 00:00
Search period end: 19 June 2023 00:00
Orbit: 617 x 629 km, 98.4° (Epoch: 08 June)

Date Brightness Start Highest point End Pass type
(mag) Time Alt. Az. Time Alt. Az. Time Alt. Az.
09 Jun ? 06:13:53 10° SE 06:17:41 29° E 06:21:26 10° NNE visible
09 Jun ? 18:33:25 10° N 18:37:42 66° WNW 18:42:03 10° SSW visible
10 Jun ? 18:52:00 10° NNW 18:56:00 36° W 19:00:01 10° SSW visible
11 Jun ? 19:11:00 10° NNW 19:14:18 21° W 19:17:38 10° SW visible
12 Jun ? 19:30:51 10° WNW 19:32:38 12° W 19:34:24 10° WSW visible
13 Jun ? 05:52:17 10° ESE 05:54:38 14° E 05:56:59 10° NE visible
13 Jun ? 18:10:31 10° NNE 18:14:45 57° ESE 18:19:02 10° S visible
14 Jun ? 06:09:22 10° SE 06:12:57 24° E 06:16:29 10° NNE visible
14 Jun ? 18:28:39 10° N 18:32:58 80° WNW 18:37:20 10° SSW visible
15 Jun ? 06:27:04 10° SSE 06:31:13 42° E 06:35:20 10° N visible
15 Jun ? 18:47:05 10° N 18:51:12 44° W 18:55:22 10° SSW visible
16 Jun ? 19:05:53 10° NNW 19:09:28 25° W 19:13:04 10° SW visible
17 Jun ? 19:25:18 10° NW 19:27:45 15° W 19:30:13 10° WSW visible
18 Jun ? 05:48:09 10° ESE 05:49:45 12° E 05:51:19 10° ENE visible
18 Jun ? 18:05:44 10° NNE 18:09:52 47° ESE 18:14:04 10° S visible
